Location: *
(45.1333°S, 169.6333°W)
Time: 21:19:29
(UTC+00:00)

CZ-2C R/B - Pass Details

Date: 26 May 2022
Orbit: 704 x 907 km, 98.1° (Epoch: 01 July)

Event Time Altitude Azimuth Distance (km) Brightness Sun altitude
Rises 05:05:10 0° 173° (S) 3,138 5.9 -13.0°
Reaches altitude 10° 05:07:31 10° 179° (S) 2,214 5.2 -13.4°
Maximum altitude 05:12:05 45° 250° (WSW) 989 4.0 -14.2°
Drops below altitude 10° 05:16:44 10° 321° (NW) 2,239 6.2 -15.0°
Sets 05:19:06 0° 327° (NNW) 3,177 7.0 -15.4°
